Meteo orario Zagorzany

Oggi, 29 Luglio, Giovedi

Tempo Temperatura Precipitazioni Vento Pressione Umidità
00:00 +21°C° 0.2 mm 3 m/s 743 mm Hg 84%
01:00 +20°C° 0.2 mm 4 m/s 743 mm Hg 91%
02:00 +20°C° 0.3 mm 3 m/s 743 mm Hg 93%
03:00 +20°C° 0.3 mm 3 m/s 743 mm Hg 95%
04:00 +20°C° 0.3 mm 3 m/s 743 mm Hg 96%
05:00 +20°C° 0 mm 3 m/s 744 mm Hg 93%
06:00 +21°C° 0 mm 3 m/s 744 mm Hg 90%
07:00 +21°C° 0 mm 4 m/s 744 mm Hg 86%
08:00 +23°C° 0.2 mm 4 m/s 744 mm Hg 79%
09:00 +25°C° 0.2 mm 4 m/s 744 mm Hg 71%
10:00 +26°C° 0.2 mm 4 m/s 745 mm Hg 63%
11:00 +27°C° 0.1 mm 4 m/s 744 mm Hg 57%
12:00 +28°C° 0.1 mm 4 m/s 744 mm Hg 51%
13:00 +29°C° 0.1 mm 4 m/s 744 mm Hg 46%
14:00 +29°C° 0 mm 4 m/s 744 mm Hg 47%
15:00 +29°C° 0 mm 4 m/s 744 mm Hg 48%
16:00 +28°C° 0 mm 4 m/s 744 mm Hg 48%
17:00 +27°C° 0 mm 3 m/s 744 mm Hg 53%
18:00 +26°C° 0 mm 2 m/s 744 mm Hg 58%
19:00 +24°C° 0 mm 2 m/s 744 mm Hg 63%
20:00 +23°C° 0 mm 2 m/s 744 mm Hg 65%
21:00 +22°C° 0 mm 1 m/s 744 mm Hg 66%
22:00 +21°C° 0 mm 1 m/s 744 mm Hg 68%
23:00 +21°C° 0 mm 1 m/s 744 mm Hg 71%

Domani, 30 Luglio, Venerdi

Tempo Temperatura Precipitazioni Vento Pressione Umidità
00:00 +20°C° 0 mm 1 m/s 744 mm Hg 73%
01:00 +19°C° 0 mm 2 m/s 745 mm Hg 76%
02:00 +18°C° 0 mm 2 m/s 744 mm Hg 77%
03:00 +18°C° 0 mm 2 m/s 744 mm Hg 79%
04:00 +18°C° 0 mm 2 m/s 744 mm Hg 80%
05:00 +19°C° 0 mm 2 m/s 744 mm Hg 74%
06:00 +21°C° 0 mm 2 m/s 744 mm Hg 68%
07:00 +24°C° 0 mm 2 m/s 744 mm Hg 62%
08:00 +25°C° 0 mm 2 m/s 744 mm Hg 57%
09:00 +27°C° 0 mm 2 m/s 744 mm Hg 52%
10:00 +28°C° 0 mm 3 m/s 744 mm Hg 47%
11:00 +29°C° 0 mm 3 m/s 744 mm Hg 45%
12:00 +30°C° 0 mm 3 m/s 743 mm Hg 43%
13:00 +31°C° 0 mm 3 m/s 743 mm Hg 41%
14:00 +31°C° 0 mm 3 m/s 743 mm Hg 44%
15:00 +30°C° 0 mm 2 m/s 742 mm Hg 47%
16:00 +30°C° 0 mm 2 m/s 742 mm Hg 50%
17:00 +28°C° 0.1 mm 1 m/s 742 mm Hg 55%
18:00 +27°C° 0.1 mm 1 m/s 742 mm Hg 60%
19:00 +26°C° 0.1 mm 1 m/s 742 mm Hg 64%
20:00 +24°C° 0.3 mm 1 m/s 742 mm Hg 70%
21:00 +23°C° 0.3 mm 1 m/s 742 mm Hg 75%
22:00 +22°C° 0.3 mm 1 m/s 742 mm Hg 81%
23:00 +21°C° 0.1 mm 1 m/s 742 mm Hg 82%

Dopodomani, 31 Luglio, Sabato

Tempo Temperatura Precipitazioni Vento Pressione Umidità
00:00 +21°C° 0.1 mm 1 m/s 742 mm Hg 84%
01:00 +21°C° 0.1 mm 1 m/s 741 mm Hg 85%
02:00 +18°C° 0 mm 0 m/s 741 mm Hg 85%
03:00 +18°C° 0 mm 0 m/s 741 mm Hg 85%
04:00 +18°C° 0 mm 0 m/s 741 mm Hg 85%
05:00 +22°C° 0 mm 1 m/s 741 mm Hg 81%
06:00 +23°C° 0 mm 1 m/s 741 mm Hg 76%
07:00 +25°C° 0 mm 1 m/s 741 mm Hg 72%
08:00 +27°C° 0 mm 2 m/s 741 mm Hg 64%
09:00 +29°C° 0 mm 2 m/s 741 mm Hg 55%
10:00 +31°C° 0 mm 2 m/s 741 mm Hg 47%
11:00 +29°C° 0.1 mm 3 m/s 741 mm Hg 56%
12:00 +27°C° 0.1 mm 4 m/s 740 mm Hg 64%
13:00 +26°C° 0.1 mm 5 m/s 740 mm Hg 73%
14:00 +23°C° 1 mm 5 m/s 741 mm Hg 78%
15:00 +22°C° 1 mm 5 m/s 741 mm Hg 83%
16:00 +20°C° 1 mm 5 m/s 741 mm Hg 89%
17:00 +20°C° 1 mm 3 m/s 742 mm Hg 91%
18:00 +19°C° 1 mm 2 m/s 742 mm Hg 93%
19:00 +20°C° 1 mm 1 m/s 742 mm Hg 95%
20:00 +19°C° 0 mm 1 m/s 742 mm Hg 96%
21:00 +18°C° 0 mm 2 m/s 742 mm Hg 96%
22:00 +18°C° 0 mm 2 m/s 742 mm Hg 97%
23:00 +18°C° 0 mm 2 m/s 742 mm Hg 96%

1 Agosto, Domenica

Tempo Temperatura Precipitazioni Vento Pressione Umidità
00:00 +17°C° 0 mm 2 m/s 742 mm Hg 96%
01:00 +17°C° 0 mm 2 m/s 742 mm Hg 96%
02:00 +17°C° 0 mm 2 m/s 742 mm Hg 95%
03:00 +18°C° 0 mm 1 m/s 742 mm Hg 94%
04:00 +18°C° 0 mm 1 m/s 742 mm Hg 93%
05:00 +19°C° 0 mm 1 m/s 742 mm Hg 88%
06:00 +21°C° 0 mm 1 m/s 742 mm Hg 83%
07:00 +22°C° 0 mm 1 m/s 742 mm Hg 78%
08:00 +24°C° 0 mm 2 m/s 742 mm Hg 70%
09:00 +25°C° 0 mm 3 m/s 742 mm Hg 62%
10:00 +27°C° 0 mm 4 m/s 741 mm Hg 54%
11:00 +28°C° 0 mm 4 m/s 741 mm Hg 53%
12:00 +29°C° 0 mm 4 m/s 740 mm Hg 52%
13:00 +30°C° 0 mm 5 m/s 740 mm Hg 51%
14:00 +29°C° 0.2 mm 4 m/s 739 mm Hg 54%
15:00 +29°C° 0.2 mm 4 m/s 739 mm Hg 57%
16:00 +29°C° 0.2 mm 4 m/s 739 mm Hg 60%
17:00 +26°C° 0.8 mm 4 m/s 738 mm Hg 68%
18:00 +22°C° 0.8 mm 4 m/s 738 mm Hg 77%
19:00 +19°C° 0.8 mm 4 m/s 737 mm Hg 86%
20:00 +19°C° 2.5 mm 4 m/s 738 mm Hg 88%
21:00 +19°C° 2.5 mm 3 m/s 738 mm Hg 91%
22:00 +19°C° 2.5 mm 2 m/s 739 mm Hg 93%
23:00 +18°C° 0 mm 3 m/s 739 mm Hg 94%

2 Agosto, Lunedi

Tempo Temperatura Precipitazioni Vento Pressione Umidità
00:00 +18°C° 0 mm 3 m/s 739 mm Hg 94%
01:00 +17°C° 0 mm 4 m/s 739 mm Hg 94%
02:00 +17°C° 0.1 mm 4 m/s 740 mm Hg 94%
03:00 +17°C° 0.1 mm 3 m/s 740 mm Hg 95%
04:00 +17°C° 0.1 mm 3 m/s 740 mm Hg 95%
05:00 +15°C° 0.2 mm 4 m/s 740 mm Hg 95%
06:00 +15°C° 0.2 mm 4 m/s 741 mm Hg 94%
07:00 +15°C° 0.2 mm 5 m/s 741 mm Hg 94%
08:00 +15°C° 0.1 mm 5 m/s 742 mm Hg 92%
09:00 +15°C° 0.1 mm 4 m/s 742 mm Hg 90%
10:00 +17°C° 0.1 mm 4 m/s 743 mm Hg 88%
11:00 +18°C° 0 mm 4 m/s 743 mm Hg 78%
12:00 +20°C° 0 mm 4 m/s 743 mm Hg 68%
13:00 +21°C° 0 mm 3 m/s 743 mm Hg 59%
14:00 +22°C° 0 mm 3 m/s 744 mm Hg 57%
15:00 +22°C° 0 mm 3 m/s 744 mm Hg 55%
16:00 +22°C° 0 mm 3 m/s 744 mm Hg 54%
17:00 +21°C° 0 mm 2 m/s 744 mm Hg 60%
18:00 +20°C° 0 mm 2 m/s 744 mm Hg 66%
19:00 +19°C° 0 mm 2 m/s 744 mm Hg 73%
20:00 +18°C° 0 mm 2 m/s 744 mm Hg 75%
21:00 +17°C° 0 mm 2 m/s 744 mm Hg 78%
22:00 +17°C° 0 mm 2 m/s 744 mm Hg 80%
23:00 +16°C° 0 mm 2 m/s 744 mm Hg 82%

3 Agosto, Martedi

Tempo Temperatura Precipitazioni Vento Pressione Umidità
00:00 +16°C° 0 mm 2 m/s 744 mm Hg 83%
01:00 +15°C° 0 mm 2 m/s 745 mm Hg 85%
02:00 +15°C° 0 mm 2 m/s 745 mm Hg 86%
03:00 +15°C° 0 mm 2 m/s 745 mm Hg 87%
04:00 +14°C° 0 mm 2 m/s 745 mm Hg 89%
05:00 +16°C° 0 mm 2 m/s 745 mm Hg 83%
06:00 +18°C° 0 mm 2 m/s 745 mm Hg 76%
07:00 +19°C° 0 mm 2 m/s 745 mm Hg 70%
08:00 +21°C° 0 mm 2 m/s 745 mm Hg 64%
09:00 +23°C° 0 mm 2 m/s 745 mm Hg 59%
10:00 +25°C° 0 mm 2 m/s 745 mm Hg 53%
11:00 +26°C° 0.1 mm 3 m/s 745 mm Hg 50%
12:00 +26°C° 0.1 mm 3 m/s 745 mm Hg 47%
13:00 +27°C° 0.1 mm 3 m/s 744 mm Hg 44%
14:00 +27°C° 0 mm 3 m/s 744 mm Hg 46%
15:00 +27°C° 0 mm 2 m/s 744 mm Hg 47%
16:00 +27°C° 0 mm 1 m/s 744 mm Hg 49%
17:00 +25°C° 0.1 mm 1 m/s 744 mm Hg 56%
18:00 +23°C° 0.1 mm 2 m/s 744 mm Hg 63%
19:00 +21°C° 0.1 mm 2 m/s 744 mm Hg 70%
20:00 +20°C° 0.3 mm 2 m/s 744 mm Hg 73%
21:00 +19°C° 0.3 mm 2 m/s 744 mm Hg 77%
22:00 +19°C° 0.3 mm 2 m/s 744 mm Hg 81%
23:00 +18°C° 0.1 mm 2 m/s 744 mm Hg 84%
Mostrare altro

Abbiamo bisogno del tuo consenso

Meteoprog e i nostri fornitori di servizi possono memorizzare e accedere a dati personali come cookie, identificatori di dispositivi o altre tecnologie simili sul tuo dispositivo e possono elaborare tali dati per personalizzare i contenuti e gli annunci, nonché fornire funzionalità dei social media e analizzarne il traffico.

  • Archiviare e/o accedere alle informazioni sul tuo dispositivo

    Cookie, identificatori di dispositivi o altre informazioni possono essere memorizzati o resi accessibili sul tuo dispositivo per le finalità sopra indicate.

  • Annunci e contenuti personalizzati, misurazione di annunci e contenuti, approfondimenti sul pubblico e sviluppo di prodotti

    Gli annunci e i contenuti possono essere personalizzati in base a un profilo. È possibile aggiungere più dati per personalizzare meglio annunci e contenuti. È possibile misurare il rendimento degli annunci e dei contenuti. È possibile ricavare informazioni sul pubblico che ha visto gli annunci e i contenuti. Tali dati possono essere utilizzati per sviluppare o migliorare l'esperienza, i sistemi e il software dell'utente.

Cliccando su “Accetto”, acconsenti all'uso di cookie, identificatori di dispositivo, web beacon o altre tecnologie simili. Puoi modificare le impostazioni nel browser del tuo dispositivo.

Per determinati scopi, è possibile fare affidamento su interessi legali, piuttosto che sul consenso. Puoi approfondire questo argomento consultando la nostra Informativa sulla privacy e sui cookie.